Location: Shenandoah County Park
(38.9356°N, 78.4524°W)
Time: 04:09:48
(UTC-04:00)

Transit 2A - Pass Details

Date: 18 June 2024
Orbit: 591 x 960 km, 66.7° (Epoch: 23 July)

Event Time Altitude Azimuth Distance (km) Brightness Sun altitude
Rises 00:33:06 0° 343° (NNW) 3,499 10.7 -26.9°
Reaches altitude 10° 00:36:34 10° 4° (N) 2,613 9.7 -27.0°
Maximum altitude 00:40:25 17° 43° (NE) 2,196 8.7 -27.1°
Drops below altitude 10° 00:44:22 10° 82° (E) 2,684 8.8 -27.2°
Enters shadow 00:46:23 - 94° (E) 3,181 9.1 -27.3°
